Regional Weather Roundup
Issued by NWS

Home | Current Version | Previous Version | Text Only | Print | Product List | Glossary Off
Versions: 1 2 3 4 5 6 7 8 9 10 11 12 13 14 15 16 17 18 19 20 21 22 23 24 25 26 27 28 29 30 31 32 33 34 35 36 37 38 39 40 41 42 43 44 45 46 47 48 49 50

000
ASUS43 KTOP 191108
RWRKS

WEATHER ROUNDUP FOR KANSAS
NATIONAL WEATHER SERVICE GOODLAND KS
500 AM CST SUN FEB 19 2017

NOTE:  "FAIR" INDICATES FEW OR NO CLOUDS BELOW 12,000 FEET WITH NO
SIGNIFICANT WEATHER AND/OR OBSTRUCTIONS TO VISIBILITY.

KSZ001>006-013>018-027>032-041>047-191200-
NORTHWEST KANSAS

CITY           SKY/WX    TMP DP  RH WIND       PRES   REMARKS
GOODLAND       CLOUDY    46  35  65 S18       29.69S
HAYS           LGT RAIN  40  40 100 E6        29.82S VSB 1/2
HILL CITY      MOCLDY    46  44  93 S3        29.80S
RUSSELL        PTCLDY    45  44  97 S9        29.81S FOG
$$

KSZ061>065-074>080-084>089-191200-
SOUTHWEST KANSAS

CITY           SKY/WX    TMP DP  RH WIND       PRES   REMARKS
DODGE CITY     CLOUDY    42  42 100 S9        29.81S FOG
ELKHART          N/A     44  36  73 S7          N/A
GARDEN CITY    FOG       38  38 100 S3        29.80S VSB 1/4
GREAT BEND     PTCLDY    46  45  96 S9        29.83S FOG
LIBERAL        CLOUDY    46  39  76 S10       29.81R
PRATT          CLOUDY    43  42  97 CALM      29.85R FOG
$$

KSZ066>073-081>083-090>101-191200-
SOUTHEAST KANSAS

CITY           SKY/WX    TMP DP  RH WIND       PRES   REMARKS
CHANUTE        FOG       43  42  97 SE7       29.93R VSB 1/4
COFFEYVILLE    FOG       38  37  97 E5        29.93S VSB 1/4
HUTCHINSON     PTCLDY    46  45  96 SE8       29.85S FOG
MEDICINE LODGE   N/A     45  44  97 E7        29.85R
NEWTON         FOG       43  43 100 SE10      29.88F VSB 1/4
PARSONS        FOG       37  37 100 CALM      29.94S VSB 1/4
WICHITA INTL   CLOUDY    46  45  96 SE8       29.87F FOG
WICHITA JABRA  FOG       41  41 100 SE6       29.88S VSB 1/4
WICHITA MCCONL CLOUDY    46  45  98 SE7       29.87F FOG
WINFIELD       CLEAR     48  46  93 E6        29.90S
$$

KSZ007>012-019>026-033>040-048>060-102>105-191200-
NORTHEAST KANSAS

CITY           SKY/WX    TMP DP  RH WIND       PRES   REMARKS
CONCORDIA      PTCLDY    48  47  96 S7        29.84F
EMPORIA        FOG       37  37 100 SE5       29.90R VSB 1/4
LAWRENCE       FOG       42  42 100 E5        29.93S VSB 1/2
MANHATTAN      CLEAR     41  41 100 CALM      29.89R FOG
MARYSVILLE     PTCLDY    45  43  93 SE3       29.88R
OLATHE IND     FOG       42  42 100 S5        29.94R VSB 1/4
OLATHE EXE     FOG       43  43 100 S5        29.93R VSB 1/4
SALINA         PTCLDY    47  45  93 SE9       29.85F
TOPEKA BILLARD PTCLDY    43  41  93 E6        29.91R FOG
TOPEKA FORBES  PTCLDY    49  46  90 S6        29.90S FOG
$$



USA.gov is the U.S. government's official web portal to all federal, state and local government web resources and services.